Kalaeloa (John Rodgers Field) Airport Kapolei US
ICAO: PHJR
IATA:
Category: Medium
Scheduled Services:

Elevation: 30 ft
TransAlt. 18000 ft.

Airport Communications:
HONOLULU APP/DEP:118.3
ATIS:119.8
CLNC DEL:121.7
CTAF:132.6
GND:123.8
TWR:132.6

PHJR Zoom In..

If you have problems with the map follow the link
https://www.worldairports.se/pages/airport.php?
ICAO=PHJR

Runways:

(A) RW 04L length 4500 ft width 200 ft
---- / hdg 44

(B) RW 04R length 8000 ft width 200 ft
---- / hdg 44

(C) RW 11 length 6000 ft width 200 ft
---- / hdg 108

(D) RW 22L length 8000 ft width 200 ft
---- / hdg 224

(E) RW 22R length 4500 ft width 200 ft
---- / hdg 224

(F) RW 29 length 6000 ft width 200 ft
---- / hdg 288

Location; PHJR
Day. 14 / Time. 20.53 Zulu
* Altimeter: 30.15
* Temperature: 27° c. 80.6°f.
* Wind from: 060° Speed 11 kn with Gusts up to 18 kn.
Dewpoint: 17° c.
Visibility: 10 Statute Miles.
Clouds: Broken 3900 ft.

PHJR 142053Z 06011G18KT 10SM BKN039 27/17 A3015 RMK AO2 SLP216 T02720172 53004


Wind From 060°
Speed 11 kn.

 
 
jpsmedia.com for Web Design worldairports.se 2018   terms of use